Estación de Río Bueno

Ultimos registro cada 15 minutos 59
Estación Fecha / Hora Temperatura Humedad Lluvia Velocidad Dirección Radiación Presion
59 Río Bueno 08-05-2026 15:30 13,9 67,1 0 1,7 201 334,4 1020,7
58 Río Bueno 08-05-2026 15:15 13,8 69,4 0 1,7 184 360,6 1020,6
57 Río Bueno 08-05-2026 15:00 13 71,4 0 2 187 403,1 1020,5
56 Río Bueno 08-05-2026 14:45 13,8 70,5 0 2 190 578,1 1020,4
55 Río Bueno 08-05-2026 14:30 12,9 71,5 0 1,7 183 200,6 1020,5
54 Río Bueno 08-05-2026 14:15 11,5 77,1 0 2 192 148,1 1020,2
53 Río Bueno 08-05-2026 14:00 12 75,5 0 1,7 191 160,6 1020,1
52 Río Bueno 08-05-2026 13:45 11,9 76,6 0 1,7 213 489,4 1019,8
51 Río Bueno 08-05-2026 13:30 10,4 82,2 0 1,7 197 226,9 1020,2
50 Río Bueno 08-05-2026 13:15 10,1 80,5 0 1,3 213 146,9 1020,4
49 Río Bueno 08-05-2026 13:00 9,9 83 0 1,3 212 135,6 1020,3
48 Río Bueno 08-05-2026 12:45 10,3 80,9 0 1,7 225 141,9 1020,5
47 Río Bueno 08-05-2026 12:30 10,2 85,2 0 1,3 230 186,9 1020,5
46 Río Bueno 08-05-2026 12:15 9,5 89 0 1,3 225 169,4 1020,4
45 Río Bueno 08-05-2026 12:00 9,1 89,1 0 1,7 220 146,9 1020,5
44 Río Bueno 08-05-2026 11:45 8,7 91,2 0 1,3 222 68,1 1020,3
43 Río Bueno 08-05-2026 11:30 8,8 90,7 0 1,7 232 66,9 1020,4
42 Río Bueno 08-05-2026 11:15 9,5 89,2 0 1 236 151,9 1020
41 Río Bueno 08-05-2026 11:00 9,6 91,4 0 1,3 219 146,9 1020
40 Río Bueno 08-05-2026 10:45 9,3 93,1 0 1 222 145,6 1020,1
39 Río Bueno 08-05-2026 10:30 8,9 94,4 0 1 222 109,4 1020,1
38 Río Bueno 08-05-2026 10:15 8,8 95,4 0 1 225 165,6 1019,8
37 Río Bueno 08-05-2026 10:00 8,4 95,4 0,2 1 220 89,4 1019,8
36 Río Bueno 08-05-2026 09:45 8,3 95,7 0 0,7 225 115,6 1019,6
35 Río Bueno 08-05-2026 09:30 8,1 95,7 0 0,7 215 68,1 1019,7
34 Río Bueno 08-05-2026 09:15 7,9 95,7 0 0,7 206 66,9 1019,2
33 Río Bueno 08-05-2026 09:00 7,7 95,7 0 0,3 181 35,6 1019,1
32 Río Bueno 08-05-2026 08:45 7,6 95,7 0,2 0,3 174 19,4 1018,8
31 Río Bueno 08-05-2026 08:30 7,5 95,6 0 0 171 18,1 1018,4
30 Río Bueno 08-05-2026 08:15 7,3 95,6 0 0 171 10,6 1018,2
29 Río Bueno 08-05-2026 08:00 7,2 95,5 0 0 171 8,1 1018
28 Río Bueno 08-05-2026 07:45 7,2 95,5 0 0,3 161 0,6 1018,1
27 Río Bueno 08-05-2026 07:30 7,2 95,4 0 0,3 167 0,6 1018,1
26 Río Bueno 08-05-2026 07:15 7,1 95,3 0 0,7 143 0,6 1018,1
25 Río Bueno 08-05-2026 07:00 7,3 95,2 0 0,7 161 0,6 1018
24 Río Bueno 08-05-2026 06:45 7,3 95,1 0 0,3 145 0,6 1017,6
23 Río Bueno 08-05-2026 06:30 7,3 95 0,2 0 145 0,6 1017,4
22 Río Bueno 08-05-2026 06:15 7,3 94,9 0 0,3 129 0,6 1017,2
21 Río Bueno 08-05-2026 06:00 7,3 94,8 0 0 88 0,6 1016,9
20 Río Bueno 08-05-2026 05:45 7,3 94,7 0 0,3 88 0,6 1016,6
19 Río Bueno 08-05-2026 04:30 7,2 94,1 0 0,7 59 0,6 1016,3
18 Río Bueno 08-05-2026 04:15 7,2 94,1 0 0,7 80 0,6 1016,4
17 Río Bueno 08-05-2026 04:00 7,2 93,9 0 1 62 0,6 1016,3
16 Río Bueno 08-05-2026 03:45 7,1 94 0 1 53 0,6 1016,1
15 Río Bueno 08-05-2026 03:30 7,1 93,9 0,2 1 69 0,6 1016,4
14 Río Bueno 08-05-2026 03:15 7 93,9 0 1 91 0,6 1016,6
13 Río Bueno 08-05-2026 03:00 7 93,8 0,2 1 80 0,6 1016,7
12 Río Bueno 08-05-2026 02:45 7 93,5 0,2 1 87 0,6 1016,4
11 Río Bueno 08-05-2026 02:30 6,9 93,4 0 1 73 0,6 1016,6
10 Río Bueno 08-05-2026 02:15 7 93,5 0 1 74 0,6 1016,6
9 Río Bueno 08-05-2026 02:00 6,9 93,7 0 1,3 58 0,6 1016,4
8 Río Bueno 08-05-2026 01:45 6,8 94,3 0,4 1,3 37 0,6 1016,4
7 Río Bueno 08-05-2026 01:30 6,7 93,1 0 1 39 0,6 1017
6 Río Bueno 08-05-2026 01:15 6,7 93,1 0 1 65 0,6 1017,3
5 Río Bueno 08-05-2026 01:00 6,7 93,1 0,2 1,3 69 0,6 1017,7
4 Río Bueno 08-05-2026 00:45 6,8 93,1 0,2 1,3 55 0,6 1017,9
3 Río Bueno 08-05-2026 00:30 6,9 92 0,2 1,7 46 0,6 1018
2 Río Bueno 08-05-2026 00:15 6,9 92 0 1,7 59 0,6 1018,3
1 Río Bueno 08-05-2026 00:00 6,9 91,6 0 1,7 52 0,6 1018,3